International Skating Union - Official Site

ESSENT ISU WORLD ALLROUND CHAMPIONSHIPS 2012
February 18-19, 2012

Draw | Lap Times | Index | Classification

Referee: Jan  AUGUSTINUS  (NED)
Starter: Trond  RATDAL  (NOR)
StartTime: EndTime: Air Temp: Ice Temp: Humidity:
17:43 19:32 15.5℃ -5.9℃ 35.5%
Result 5000m Men
Rankings as of Feb 18 2012 7:38PM
Rank: No.: Name: Nation: Time: Behind: Points:
1 65 Sven  KRAMER NED NED 6:14.23200m - 18.73 - (18.7)
600m - 47.64 - (28.9)
1000m - 1:17.23 - (29.5)
1400m - 1:47.16 - (29.9)
1800m - 2:16.65 - (29.4)
2200m - 2:46.25 - (29.5)
2600m - 3:15.76 - (29.5)
3000m - 3:45.39 - (29.6)
3400m - 4:14.54 - (29.1)
3800m - 4:44.17 - (29.6)
4200m - 5:14.02 - (29.8)
4600m - 5:43.98 - (29.9)
5000m - 6:14.23 - (30.2)
37.423
2 64 Jan  BLOKHUIJSEN NED NED 6:16.99200m - 18.20 - (18.1)
600m - 46.76 - (28.5)
1000m - 1:15.92 - (29.1)
1400m - 1:45.26 - (29.3)
1800m - 2:14.93 - (29.6)
2200m - 2:44.72 - (29.7)
2600m - 3:14.89 - (30.1)
3000m - 3:44.74 - (29.8)
3400m - 4:14.87 - (30.1)
3800m - 4:45.02 - (30.1)
4200m - 5:15.39 - (30.3)
4600m - 5:46.04 - (30.6)
5000m - 6:16.99 - (30.9)
2.76 37.699
3 76 Ivan  SKOBREV RUS RUS 6:19.78200m - 18.52 - (18.5)
600m - 47.62 - (29.0)
1000m - 1:16.98 - (29.3)
1400m - 1:46.94 - (29.9)
1800m - 2:16.86 - (29.9)
2200m - 2:47.03 - (30.1)
2600m - 3:17.27 - (30.2)
3000m - 3:47.56 - (30.2)
3400m - 4:17.91 - (30.3)
3800m - 4:48.29 - (30.3)
4200m - 5:18.58 - (30.2)
4600m - 5:48.99 - (30.4)
5000m - 6:19.78 - (30.7)
5.55 37.978
4 66 Koen  VERWEIJ NED NED 6:20.70200m - 18.58 - (18.5)
600m - 47.72 - (29.1)
1000m - 1:17.68 - (29.9)
1400m - 1:47.79 - (30.1)
1800m - 2:18.07 - (30.2)
2200m - 2:48.15 - (30.0)
2600m - 3:18.42 - (30.2)
3000m - 3:48.66 - (30.2)
3400m - 4:18.79 - (30.1)
3800m - 4:49.32 - (30.5)
4200m - 5:19.79 - (30.4)
4600m - 5:50.36 - (30.5)
5000m - 6:20.70 - (30.3)
6.47 38.070
5 69 Håvard  BØKKO NOR NOR 6:22.21200m - 18.39 - (18.3)
600m - 47.92 - (29.5)
1000m - 1:18.22 - (30.2)
1400m - 1:48.36 - (30.1)
1800m - 2:18.61 - (30.2)
2200m - 2:48.89 - (30.2)
2600m - 3:19.11 - (30.2)
3000m - 3:49.46 - (30.3)
3400m - 4:19.64 - (30.1)
3800m - 4:50.04 - (30.4)
4200m - 5:20.70 - (30.6)
4600m - 5:51.36 - (30.6)
5000m - 6:22.21 - (30.8)
7.98 38.221
6 57 Alexis  CONTIN FRA FRA 6:24.69200m - 18.71 - (18.7)
600m - 48.39 - (29.6)
1000m - 1:19.07 - (30.6)
1400m - 1:49.07 - (30.0)
1800m - 2:19.25 - (30.1)
2200m - 2:49.65 - (30.4)
2600m - 3:20.22 - (30.5)
3000m - 3:50.51 - (30.2)
3400m - 4:21.22 - (30.7)
3800m - 4:51.77 - (30.5)
4200m - 5:22.25 - (30.4)
4600m - 5:53.22 - (30.9)
5000m - 6:24.69 - (31.4)
10.46 38.469
7 70 Sverre  LUNDE PEDERSEN NOR NOR 6:26.04200m - 18.85 - (18.8)
600m - 49.08 - (30.2)
1000m - 1:19.75 - (30.6)
1400m - 1:50.39 - (30.6)
1800m - 2:20.91 - (30.5)
2200m - 2:51.67 - (30.7)
2600m - 3:22.48 - (30.8)
3000m - 3:53.08 - (30.6)
3400m - 4:23.61 - (30.5)
3800m - 4:54.15 - (30.5)
4200m - 5:24.58 - (30.4)
4600m - 5:55.03 - (30.4)
5000m - 6:26.04 - (31.0)
11.81 38.604
8 78 Jonathan  KUCK USA USA 6:27.15200m - 19.20 - (19.1)
600m - 49.17 - (29.9)
1000m - 1:19.34 - (30.1)
1400m - 1:49.69 - (30.3)
1800m - 2:20.02 - (30.3)
2200m - 2:50.27 - (30.2)
2600m - 3:20.77 - (30.5)
3000m - 3:51.36 - (30.5)
3400m - 4:22.01 - (30.6)
3800m - 4:52.61 - (30.6)
4200m - 5:23.54 - (30.9)
4600m - 5:54.86 - (31.3)
5000m - 6:27.15 - (32.2)
12.92 38.715
9 62 Haralds  SILOVS LAT LAT 6:28.26200m - 18.70 - (18.6)
600m - 49.22 - (30.5)
1000m - 1:20.60 - (31.3)
1400m - 1:51.90 - (31.3)
1800m - 2:22.39 - (30.4)
2200m - 2:53.18 - (30.7)
2600m - 3:23.81 - (30.6)
3000m - 3:54.33 - (30.5)
3400m - 4:24.89 - (30.5)
3800m - 4:55.36 - (30.4)
4200m - 5:25.98 - (30.6)
4600m - 5:56.93 - (30.9)
5000m - 6:28.26 - (31.3)
14.03 38.826
10 58 Patrick  BECKERT GER GER 6:29.40200m - 19.48 - (19.4)
600m - 49.28 - (29.8)
1000m - 1:19.36 - (30.0)
1400m - 1:49.44 - (30.0)
1800m - 2:19.96 - (30.5)
2200m - 2:50.89 - (30.9)
2600m - 3:22.09 - (31.2)
3000m - 3:53.85 - (31.7)
3400m - 4:25.20 - (31.3)
3800m - 4:56.55 - (31.3)
4200m - 5:27.79 - (31.2)
4600m - 5:58.59 - (30.7)
5000m - 6:29.40 - (30.8)
15.17 38.940
11 51 Bart  SWINGS BEL BEL 6:29.62200m - 19.17 - (19.1)
600m - 49.52 - (30.3)
1000m - 1:19.51 - (29.9)
1400m - 1:50.05 - (30.5)
1800m - 2:20.84 - (30.7)
2200m - 2:51.83 - (30.9)
2600m - 3:22.86 - (31.0)
3000m - 3:54.92 - (32.0)
3400m - 4:26.21 - (31.2)
3800m - 4:57.44 - (31.2)
4200m - 5:28.35 - (30.9)
4600m - 5:59.07 - (30.7)
5000m - 6:29.62 - (30.5)
15.39 38.962
12 61 Seung-Hoon  LEE KOR KOR 6:31.89200m - 19.41 - (19.4)
600m - 50.20 - (30.7)
1000m - 1:21.23 - (31.0)
1400m - 1:51.93 - (30.7)
1800m - 2:23.06 - (31.1)
2200m - 2:53.95 - (30.8)
2600m - 3:25.08 - (31.1)
3000m - 3:56.22 - (31.1)
3400m - 4:27.33 - (31.1)
3800m - 4:58.28 - (30.9)
4200m - 5:29.13 - (30.8)
4600m - 6:00.33 - (31.1)
5000m - 6:31.89 - (31.5)
17.66 39.189
13 68 Shane  DOBBIN NZL NZL 6:31.95200m - 19.21 - (19.2)
600m - 49.41 - (30.1)
1000m - 1:20.22 - (30.8)
1400m - 1:51.52 - (31.2)
1800m - 2:22.85 - (31.3)
2200m - 2:54.05 - (31.2)
2600m - 3:25.35 - (31.2)
3000m - 3:56.58 - (31.2)
3400m - 4:27.75 - (31.1)
3800m - 4:58.82 - (31.0)
4200m - 5:29.69 - (30.8)
4600m - 6:00.73 - (31.0)
5000m - 6:31.95 - (31.2)
17.72 39.195
14 63 Ted-Jan  BLOEMEN NED NED 6:32.83200m - 19.02 - (19.0)
600m - 49.15 - (30.1)
1000m - 1:19.64 - (30.4)
1400m - 1:50.29 - (30.6)
1800m - 2:21.04 - (30.7)
2200m - 2:52.08 - (31.0)
2600m - 3:23.08 - (31.0)
3000m - 3:54.06 - (30.9)
3400m - 4:25.44 - (31.3)
3800m - 4:57.16 - (31.7)
4200m - 5:29.05 - (31.8)
4600m - 6:00.91 - (31.8)
5000m - 6:32.83 - (31.9)
18.60 39.283
15 74 Jan  SZYMANSKI POL POL 6:38.54200m - 19.30 - (19.3)
600m - 50.23 - (30.9)
1000m - 1:21.05 - (30.8)
1400m - 1:51.23 - (30.1)
1800m - 2:21.77 - (30.5)
2200m - 2:52.87 - (31.0)
2600m - 3:24.19 - (31.3)
3000m - 3:55.81 - (31.6)
3400m - 4:28.31 - (32.5)
3800m - 5:01.04 - (32.7)
4200m - 5:34.56 - (33.5)
4600m - 6:06.99 - (32.4)
5000m - 6:38.54 - (31.5)
24.31 39.854
16 60 Hiroki  HIRAKO JPN JPN 6:39.86200m - 19.70 - (19.6)
600m - 50.36 - (30.6)
1000m - 1:21.59 - (31.2)
1400m - 1:53.44 - (31.8)
1800m - 2:25.32 - (31.8)
2200m - 2:57.28 - (31.9)
2600m - 3:29.21 - (31.9)
3000m - 4:01.15 - (31.9)
3400m - 4:33.26 - (32.1)
3800m - 5:05.05 - (31.7)
4200m - 5:37.12 - (32.0)
4600m - 6:08.82 - (31.6)
5000m - 6:39.86 - (31.0)
25.63 39.986
17 73 Konrad  NIEDZWIEDZKI POL POL 6:41.36200m - 19.87 - (19.8)
600m - 51.03 - (31.1)
1000m - 1:22.10 - (31.0)
1400m - 1:53.54 - (31.4)
1800m - 2:25.24 - (31.7)
2200m - 2:57.03 - (31.7)
2600m - 3:29.02 - (31.9)
3000m - 4:01.00 - (31.9)
3400m - 4:32.92 - (31.9)
3800m - 5:04.75 - (31.8)
4200m - 5:36.84 - (32.0)
4600m - 6:08.75 - (31.9)
5000m - 64:13.60 - (32.6)
27.13 40.136
18 72 Zbigniew  BRODKA POL POL 6:41.43200m - 19.34 - (19.3)
600m - 50.10 - (30.7)
1000m - 1:21.73 - (31.6)
1400m - 1:53.84 - (32.1)
1800m - 2:25.76 - (31.9)
2200m - 2:57.40 - (31.6)
2600m - 3:29.15 - (31.7)
3000m - 4:00.92 - (31.7)
3400m - 4:32.62 - (31.7)
3800m - 5:04.51 - (31.8)
4200m - 5:36.59 - (32.0)
4600m - 6:08.90 - (32.3)
5000m - 6:41.43 - (32.5)
27.20 40.143
19 52 Jordan  BELCHOS CAN CAN 6:42.61200m - 19.60 - (19.6)
600m - 50.16 - (30.5)
1000m - 1:20.91 - (30.7)
1400m - 1:51.78 - (30.8)
1800m - 2:22.68 - (30.9)
2200m - 2:53.81 - (31.1)
2600m - 3:25.19 - (31.3)
3000m - 3:57.07 - (31.8)
3400m - 4:29.54 - (32.4)
3800m - 5:02.38 - (32.8)
4200m - 5:35.61 - (33.2)
4600m - 6:08.87 - (33.2)
5000m - 6:42.61 - (33.7)
28.38 40.261
20 79 Patrick  MEEK USA USA 6:42.63200m - 19.55 - (19.5)
600m - 51.43 - (31.8)
1000m - 1:23.56 - (32.1)
1400m - 1:55.31 - (31.7)
1800m - 2:26.80 - (31.4)
2200m - 2:58.48 - (31.6)
2600m - 3:29.93 - (31.4)
3000m - 4:01.63 - (31.6)
3400m - 4:33.40 - (31.7)
3800m - 5:05.29 - (31.8)
4200m - 5:37.41 - (32.1)
4600m - 6:09.83 - (32.4)
5000m - 6:42.63 - (32.8)
28.40 40.263
21 53 Lucas  MAKOWSKY CAN CAN 6:43.15200m - 19.22 - (19.2)
600m - 50.21 - (30.9)
1000m - 1:21.69 - (31.4)
1400m - 1:52.84 - (31.1)
1800m - 2:23.95 - (31.1)
2200m - 2:55.22 - (31.2)
2600m - 3:26.71 - (31.4)
3000m - 3:58.58 - (31.8)
3400m - 4:30.85 - (32.2)
3800m - 5:03.56 - (32.7)
4200m - 5:36.42 - (32.8)
4600m - 6:09.60 - (33.1)
5000m - 6:43.15 - (33.5)
28.92 40.315
22 54 Stefan  WAPLES CAN CAN 6:48.36200m - 19.82 - (19.8)
600m - 51.29 - (31.4)
1000m - 1:22.98 - (31.6)
1400m - 1:55.27 - (32.2)
1800m - 2:27.09 - (31.8)
2200m - 2:58.97 - (31.8)
2600m - 3:30.78 - (31.8)
3000m - 4:03.11 - (32.3)
3400m - 4:35.60 - (32.4)
3800m - 5:08.29 - (32.6)
4200m - 5:41.20 - (32.9)
4600m - 6:14.57 - (33.3)
5000m - 6:48.36 - (33.7)
34.13 40.836
23 55 Justin  WARSYLEWICZ CAN CAN 6:50.47200m - 19.50 - (19.5)
600m - 50.39 - (30.8)
1000m - 1:21.68 - (31.2)
1400m - 1:53.19 - (31.5)
1800m - 2:24.81 - (31.6)
2200m - 2:56.64 - (31.8)
2600m - 3:28.67 - (32.0)
3000m - 4:01.44 - (32.7)
3400m - 4:34.37 - (32.9)
3800m - 5:07.63 - (33.2)
4200m - 5:41.41 - (33.7)
4600m - 6:15.64 - (34.2)
5000m - 6:50.47 - (34.8)
36.24 41.047
24 80 Joshua  WOOD USA USA 6:52.83200m - 19.47 - (19.4)
600m - 50.67 - (31.2)
1000m - 1:22.59 - (31.9)
1400m - 1:54.70 - (32.1)
1800m - 2:26.82 - (32.1)
2200m - 2:58.96 - (32.1)
2600m - 3:31.54 - (32.5)
3000m - 4:04.27 - (32.7)
3400m - 4:37.16 - (32.8)
3800m - 5:10.11 - (32.9)
4200m - 5:43.79 - (33.6)
4600m - 6:18.06 - (34.2)
5000m - 6:52.83 - (34.7)
38.60 41.283